sat.trackr.live / text

‹ back to catalog

COSMOS 2494 (SKRL-756 2)

NORAD 39491 · 2013-078B

PAYLOAD ACTIVE UNKNOWN

§ Identity

Operator
Country
CIS
Launch date
2013-12-28
Launch site
PLMSC
Launch vehicle
Mass (kg)
RCS (m²)
0.68

Purposes: military

External: N2YO · Heavens-Above · Gunter

§ Orbital elements

Epoch: 2026-09-20T03:39:55.421856Z

Period
95.66 min
Inclination
82.4139°
Eccentricity
0.0014338
Mean motion
15.05342177 rev/d
Perigee alt
540.5 km
Apogee alt
560.4 km
Semi-major
6,928.6 km
B*
9.8572e-5
RAAN
157.2521°
Arg perigee
238.8094°
Mean anomaly
121.1727°
Rev number
69,309

§ Raw data

COSMOS 2494 (SKRL-756 2)1 39491U 13078B   26263.15272479  .00001442  00000+0  98572-4 0  99962 39491  82.4139 157.2521 0014338 238.8094 121.1727 15.05342177693094

JSON: /api/v1/satellites/39491 · /tle

For live sub-satellite position, see the globe view (requires WebGL).

§ Visibility from observer

Set your observer location to see the next 7 days of passes ≥ 10°. The values pass through the URL so the page stays shareable.

No JS? Fill the form by hand. The geolocation button needs JavaScript.